GW4795 Weather Reports


time (UTC)temp
F
wind
direction
speed
knots
gust
knots
rain 1hr
in
rain 24hr
in
rain mn
in
humidity
%
barometer
mb
20260504211007 83 19 1.7 7.0 0.00 0.00 0.00 37 1010.8
20260504210507 83 279 2.6 7.0 0.00 0.00 0.00 37 1010.8
20260504210020 83 276 3.5 7.0 0.00 0.00 0.00 37 1010.9
20260504205511 83 286 1.7 7.0 0.00 0.00 0.00 39 1010.9
20260504205009 83 306 2.6 7.0 0.00 0.00 0.00 40 1010.9
20260504204535 83 301 3.5 7.0 0.00 0.00 0.00 39 1010.9
20260504204007 82 317 2.6 7.0 0.00 0.00 0.00 37 1010.9
20260504203510 82 318 2.6 7.0 0.00 0.00 0.00 40 1011.0
20260504203029 82 351 1.7 6.1 0.00 0.00 0.00 40 1011.0
20260504202510 82 352 1.7 5.2 0.00 0.00 0.00 40 1010.9
20260504202008 81 250 0.9 5.2 0.00 0.00 0.00 39 1011.0
20260504201527 81 348 2.6 5.2 0.00 0.00 0.00 45 1011.0
20260504201003 80 292 2.6 6.1 0.00 0.00 0.00 38 1011.0
20260504200503 80 286 0.9 6.1 0.00 0.00 0.00 37 1011.0
20260504200010 80 230 1.7 5.2 0.00 0.00 0.00 42 1011.1
20260504195503 80 302 2.6 5.2 0.00 0.00 0.00 40 1011.1
20260504195003 79 317 1.7 7.0 0.00 0.00 0.00 40 1011.0
20260504194504 79 296 2.6 7.0 0.00 0.00 0.00 40 1011.1
20260504194006 79 304 2.6 6.1 0.00 0.00 0.00 44 1011.1
20260504193504 78 342 2.6 7.0 0.00 0.00 0.00 47 1011.1
20260504193008 78 220 3.5 7.8 0.00 0.00 0.00 43 1011.1
20260504192504 77 288 3.5 7.8 0.00 0.00 0.00 46 1011.3
20260504192003 76 267 0.9 7.8 0.00 0.00 0.00 46 1011.2
20260504191508 76 207 3.5 7.8 0.00 0.00 0.00 44 1011.2
20260504191005 76 130 1.7 7.8 0.00 0.00 0.00 45 1011.2
20260504190503 76 173 3.5 7.8 0.00 0.00 0.00 46 1011.2
20260504190013 76 182 3.5 7.8 0.00 0.00 0.00 43 1011.3
20260504185506 76 257 1.7 7.8 0.00 0.00 0.00 51 1011.3
20260504185005 76 232 1.7 6.1 0.00 0.00 0.00 46 1011.3
20260504184506 76 192 2.6 6.1 0.00 0.00 0.00 47 1011.3
20260504184003 76 169 0.9 5.2 0.00 0.00 0.00 48 1011.3
20260504183502 76 161 0.9 5.2 0.00 0.00 0.00 48 1011.3
20260504183003 75 191 0.9 3.5 0.00 0.00 0.00 49 1011.4
20260504182502 75 186 0.9 3.5 0.00 0.00 0.00 51 1011.4
20260504182003 75 130 0.9 2.6 0.00 0.00 0.00 53 1011.3
20260504181511 74 5 1.7 2.6 0.00 0.00 0.00 52 1011.3
20260504181007 74 134 0.9 4.3 0.00 0.00 0.00 52 1011.3
20260504180504 73 343 0.9 4.3 0.00 0.00 0.00 53 1011.2
20260504180013 73 154 1.7 2.6 0.00 0.00 0.00 1011.2
20260504175509 73 157 0.0 3.5 0.00 0.00 0.00 1011.3
20260504175008 73 269 0.9 3.5 0.00 0.00 0.00 60 1011.2
20260504174518 73 92 0.9 2.6 0.00 0.00 0.00 60 1011.2
20260504174003 72 100 0.9 2.6 0.00 0.00 0.00 52 1011.2
20260504173504 72 152 0.0 1.7 0.00 0.00 0.00 56 1011.2
20260504173004 71 165 0.9 1.7 0.00 0.00 0.00 54 1011.3
20260504172503 71 293 0.0 1.7 0.00 0.00 0.00 58 1011.3
20260504172006 70 262 0.0 3.5 0.00 0.00 0.00 59 1011.3
20260504171508 70 147 1.7 3.5 0.00 0.00 0.00 60 1011.3
20260504171005 70 191 0.9 2.6 0.00 0.00 0.00 57 1011.3
20260504170504 69 315 0.0 1.7 0.00 0.00 0.00 60 1011.3
20260504151011 54 98 0.0 1.7 0.00 0.00 0.00 88 1011.0
20260504150504 53 100 0.0 1.7 0.00 0.00 0.00 89 1011.1
20260504141006 49 19 0.0 1.7 0.00 0.00 0.00 91 1010.7
20260504140507 49 19 0.0 1.7 0.00 0.00 0.00 91 1010.7
20260504130506 49 19 0.0 0.0 0.00 0.00 0.00 87 1010.2
20260504110504 51 5 0.0 0.0 0.00 0.00 0.00 85 1010.3
20260504100507 52 344 0.0 1.7 0.00 0.00 0.00 85 1010.2
20260504082003 55 321 0.0 1.7 0.00 0.00 0.00 82 1010.2
20260504081509 55 321 0.0 1.7 0.00 0.00 0.00 82 1010.2
20260504081004 55 321 0.0 1.7 0.00 0.00 0.00 82 1010.1
20260504080507 55 321 0.0 1.7 0.00 0.00 0.00 82 1010.2
20260504050508 63 298 0.0 0.9 0.00 0.00 0.00 69 1010.1
20260504050009 64 302 0.9 0.9 0.00 0.00 0.00 69 1010.1
20260504045504 64 288 0.9 1.7 0.00 0.00 0.00 67 1010.1
20260504045004 65 318 0.0 1.7 0.00 0.00 0.00 65 1010.1
20260504044514 65 330 0.9 0.9 0.00 0.00 0.00 65 1010.1
20260504044006 65 330 0.0 1.7 0.00 0.00 0.00 63 1010.1
20260504043509 66 330 0.0 1.7 0.00 0.00 0.00 62 1010.1
20260504043029 66 338 0.0 1.7 0.00 0.00 0.00 61 1010.1
20260504042509 67 291 0.0 1.7 0.00 0.00 0.00 59 1010.0
20260504042007 67 291 0.0 1.7 0.00 0.00 0.00 58 1010.0
20260504041524 68 315 0.0 1.7 0.00 0.00 0.00 57 1010.0
20260504041008 68 332 0.0 1.7 0.00 0.00 0.00 56 1009.9
20260504040509 68 286 0.0 1.7 0.00 0.00 0.00 54 1009.9
20260504040026 69 286 0.0 1.7 0.00 0.00 0.00 53 1009.9
20260504035509 69 286 0.0 1.7 0.00 0.00 0.00 53 1009.9
20260504035003 69 302 0.0 0.9 0.00 0.00 0.00 51 1009.8
20260504034511 70 277 0.0 1.7 0.00 0.00 0.00 51 1009.8
20260504034006 70 278 0.0 1.7 0.00 0.00 0.00 51 1009.7
20260504033508 70 278 0.0 1.7 0.00 0.00 0.00 50 1009.6
20260504033016 70 279 0.0 1.7 0.00 0.00 0.00 49 1009.7
20260504032508 71 265 0.0 1.7 0.00 0.00 0.00 49 1009.8
20260504032008 71 287 0.9 2.6 0.00 0.00 0.00 48 1009.9
20260504031523 71 257 0.9 2.6 0.00 0.00 0.00 48 1009.9
20260504031008 72 259 0.9 2.6 0.00 0.00 0.00 48 1009.9
20260504030511 72 254 0.9 3.5 0.00 0.00 0.00 47 1009.9
20260504030026 72 229 1.7 3.5 0.00 0.00 0.00 47 1009.9
20260504025510 73 261 0.9 2.6 0.00 0.00 0.00 47 1009.9
20260504025010 73 281 1.7 2.6 0.00 0.00 0.00 46 1009.9
20260504024528 73 306 0.0 2.6 0.00 0.00 0.00 46 1009.9
20260504024011 73 322 0.9 2.6 0.00 0.00 0.00 46 1009.9
20260504023503 73 283 0.9 1.7 0.00 0.00 0.00 46 1009.9
20260504023016 73 277 0.9 4.3 0.00 0.00 0.00 46 1009.9
20260504022507 73 221 1.7 7.0 0.00 0.00 0.00 45 1009.8
20260504022008 74 279 2.6 7.0 0.00 0.00 0.00 45 1009.9
20260504021521 74 246 1.7 6.1 0.00 0.00 0.00 46 1009.8
20260504021003 74 223 1.7 6.1 0.00 0.00 0.00 46 1009.9
20260504020503 74 321 2.6 6.1 0.00 0.00 0.00 46 1009.9
20260504020009 74 269 1.7 7.0 0.00 0.00 0.00 46 1009.9
20260504015504 74 265 1.7 7.8 0.00 0.00 0.00 45 1009.9
20260504015004 74 261 3.5 7.8 0.00 0.00 0.00 45 1010.1
20260504014510 75 221 0.9 6.1 0.00 0.00 0.00 45 1010.1
20260504014003 75 344 1.7 6.1 0.00 0.00 0.00 46 1010.1
20260504013507 75 265 1.7 7.0 0.00 0.00 0.00 46 1010.1
20260504013018 75 234 1.7 8.7 0.00 0.00 0.00 45 1010.2
20260504012510 75 298 5.2 8.7 0.00 0.00 0.00 45 1010.2
20260504012008 75 252 1.7 8.7 0.00 0.00 0.00 46 1010.2
20260504011518 75 216 2.6 8.7 0.00 0.00 0.00 45 1010.3
20260504011003 75 298 2.6 7.8 0.00 0.00 0.00 45 1010.3
20260504010502 76 280 4.3 7.8 0.00 0.00 0.00 45 1010.3
20260504010003 76 275 4.3 8.7 0.00 0.00 0.00 45 1010.3
20260504005504 76 236 3.5 8.7 0.00 0.00 0.00 45 1010.3
20260504005004 76 263 5.2 10.4 0.00 0.00 0.00 44 1010.4
20260504004516 77 238 3.5 10.4 0.00 0.00 0.00 44 1010.5
20260504004004 77 288 3.5 7.0 0.00 0.00 0.00 45 1010.4
20260504003503 77 239 3.5 7.0 0.00 0.00 0.00 44 1010.4
20260504003010 77 299 2.6 7.8 0.00 0.00 0.00 44 1010.5
20260504002503 78 296 3.5 8.7 0.00 0.00 0.00 42 1010.6
20260504002006 78 220 2.6 10.4 0.00 0.00 0.00 44 1010.5
20260504001520 78 277 4.3 10.4 0.00 0.00 0.00 43 1010.6
20260504001007 79 321 5.2 7.8 0.00 0.00 0.00 43 1010.7
20260504000508 79 249 4.3 7.8 0.00 0.00 0.00 41 1010.7
20260504000024 79 262 4.3 7.8 0.00 0.00 0.00 42 1010.8
20260503235503 79 235 3.5 7.8 0.00 0.00 0.00 40 1010.8
20260503235011 79 248 5.2 8.7 0.00 0.00 0.00 41 1010.8
20260503234515 79 280 3.5 8.7 0.00 0.00 0.00 42 1010.8
20260503234008 80 231 1.7 9.6 0.00 0.00 0.00 41 1010.8
20260503233501 80 306 3.5 9.6 0.00 0.00 0.00 40 1010.8
20260503233012 80 302 2.6 7.8 0.00 0.00 0.00 42 1010.9
20260503232505 80 271 3.5 7.8 0.00 0.00 0.00 42 1011.0
20260503232005 81 333 4.3 7.8 0.00 0.00 0.00 41 1011.1
20260503231520 81 294 3.5 7.8 0.00 0.00 0.00 42 1011.2
20260503231007 81 273 2.6 7.8 0.00 0.00 0.00 43 1011.3
20260503230507 80 315 3.5 6.1 0.00 0.00 0.00 42 1011.4
20260503230018 80 257 1.7 6.1 0.00 0.00 0.00 44 1011.4
20260503225509 80 296 3.5 8.7 0.00 0.00 0.00 45 1011.6
20260503225007 80 252 3.5 8.7 0.00 0.00 0.00 44 1011.6
20260503224504 79 273 4.3 8.7 0.00 0.00 0.00 43 1011.6
20260503224003 80 239 3.5 7.8 0.00 0.00 0.00 41 1011.7
20260503223503 81 205 3.5 9.6 0.00 0.00 0.00 42 1011.7
20260503223008 81 244 4.3 9.6 0.00 0.00 0.00 43 1011.8
20260503222503 81 260 3.5 8.7 0.00 0.00 0.00 44 1011.8
20260503222005 81 286 3.5 7.0 0.00 0.00 0.00 45 1011.8
20260503221515 80 205 1.7 7.0 0.00 0.00 0.00 46 1011.9
20260503221007 80 209 3.5 7.0 0.00 0.00 0.00 43 1012.0
20260503220509 81 194 3.5 7.0 0.00 0.00 0.00 43 1012.0
20260503220021 80 311 2.6 7.0 0.00 0.00 0.00 45 1012.1
20260503215507 80 329 4.3 7.8 0.00 0.00 0.00 45 1012.2
20260503215009 80 278 4.3 7.8 0.00 0.00 0.00 43 1012.2
20260503214537 80 264 2.6 11.3 0.00 0.00 0.00 49 1012.3
20260503214009 80 225 5.2 11.3 0.00 0.00 0.00 44 1012.4
20260503213503 80 264 3.5 7.8 0.00 0.00 0.00 45 1012.4
20260503213007 80 298 3.5 7.8 0.00 0.00 0.00 44 1012.5
20260503212503 80 287 3.5 7.8 0.00 0.00 0.00 44 1012.5
20260503212006 80 304 1.7 7.0 0.00 0.00 0.00 47 1012.5
20260503211513 79 294 2.6 8.7 0.00 0.00 0.00 48 1012.5